Location: Lourdes
(43.1000°N, 0.0500°W)
Time: 05:29:29
(UTC+00:00)

Cosmos 44 - Pass Details

Date: 30 November 2020
Orbit: 574 x 788 km, 65.1° (Epoch: 27 January)

Event Time Altitude Azimuth Distance (km) Brightness Sun altitude
Rises 17:03:40 0° 327° (NNW) 3,206 6.8 -6.9°
Reaches altitude 10° 17:06:02 10° 329° (NNW) 2,302 6.1 -7.3°
Maximum altitude 17:11:22 76° 55° (NE) 808 3.5 -8.2°
Drops below altitude 10° 17:16:47 10° 142° (SE) 2,343 5.8 -9.1°
Sets 17:19:13 0° 144° (SE) 3,266 6.6 -9.5°
